sat.trackr.live / text

‹ back to catalog

STARLINK-3086

NORAD 49178 · 2021-082BA

PAYLOAD ACTIVE UNKNOWN

§ Identity

Operator
Country
US
Launch date
2021-09-14
Launch site
AFWTR
Launch vehicle
Mass (kg)
RCS (m²)

Purposes: comms

External: N2YO · Heavens-Above · Gunter

§ Orbital elements

Epoch: 2026-09-20T00:33:09.211392Z

Period
96.11 min
Inclination
70.0000°
Eccentricity
0.0002814
Mean motion
14.98330585 rev/d
Perigee alt
570.1 km
Apogee alt
574.0 km
Semi-major
6,950.2 km
B*
7.8962e-5
RAAN
164.4611°
Arg perigee
271.1792°
Mean anomaly
88.9045°
Rev number
27,624

§ Raw data

STARLINK-30861 49178U 21082BA  26263.02302328  .00000849  00000+0  78962-4 0  99972 49178  70.0000 164.4611 0002814 271.1792  88.9045 14.98330585276246

JSON: /api/v1/satellites/49178 · /tle

For live sub-satellite position, see the globe view (requires WebGL).

§ Visibility from observer

Set your observer location to see the next 7 days of passes ≥ 10°. The values pass through the URL so the page stays shareable.

No JS? Fill the form by hand. The geolocation button needs JavaScript.